Location: Fond Mahaut
(18.0707°N, 63.0465°W)
Time: 20:39:50
(UTC+00:00)

Cosmos 1674 Rocket - Pass Details

Date: 08 December 2019
Orbit: 602 x 631 km, 82.5° (Epoch: 22 January)

Event Time Altitude Azimuth Distance (km) Brightness Sun altitude
Rises 23:14:18 0° 176° (S) 2,908 7.2 -22.6°
Reaches altitude 10° 23:16:34 10° 172° (S) 2,002 6.3 -23.1°
Enters shadow 23:19:20 36° 154° (SSE) 1,001 4.5 -23.7°
